CSS (TIANHE-1), 48274

Orbit data source: Space-Track

The Chinese Space Station (CSS), known as Tiangong or "Heavenly Palace," is China's independently developed space station that represents a significant step in China’s space exploration capabilities. Launched in phases starting with the Tianhe module in 2021, the station operates in low Earth orbit (LEO). It aims to support a variety of scientific experiments in fields such as space medicine, astronomy, and technology development.

Loading next visibility...
Identifier
48274, 2021-035A
Orbit
LEO
Country
Flag of CNCN / PRC
Related business
Manufacturer
CAST
Mission
Operational Civil Spaceship
Bus & Motor
TIANHE, Unknown motor
Mass
22,500 kg wet, ~20,838 kg dry
Launch date (UTC)
2021-04-29 (5 years ago)
Launch vehicle
CHANG ZHENG 5B
Launch site
Wenchang Satellite Launch Center (WSC)
Object type
Payload
Rocket body
Debris
Shape & HBR
Irr, 27.5 m
Radar Cross Section
2905.500 m², Large (>1 m²)

Expand to show TLE details & history
Last TLE update: 12 hours ago

TLE from 12 hours ago
0 CSS (TIANHE-1)
1 48274U 21035A   26034.52706412  .00018163  00000-0  22908-3 0  9991
2 48274  41.4674  55.7893 0006165 350.4992   9.5728 15.59144861272275
Epoch: 2026-02-03T12:38Z
TLE epoch observation values (Epoch: 2026-02-03T12:38:58.339Z)
Latitude
-0.00009°
Longitude
92.3394°
Altitude
385.617 km
Speed
7.683 km/s
True Right ascension
03h 43m 09s
True Declination
0° 00' 00"
Sunlit
Object was in daylight at epoch
Visualization orbit readout
Latitude
Unknown
Longitude
Unknown
Altitude
Unknown
Speed
Unknown
Apparent Right ascension
Unknown
Apparent Declination
Unknown
Sunlit
N/A
Visualization observer readout
Local Sidereal Time
02:38:13
Azimuth
Unknown
Elevation
Unknown
Doppler factor
Unknown
Orbital elements
Apogee altitude
396.536 km
Perigee altitude
388.188 km
Semi-major axis
6,770.499 km
Eccentricity
0.00062
Inclination
41.4674°
RAAN
55.7893°
Arg. of periapsis
350.4992°
True anomaly
9.58456°
Mean anomaly
9.5728°
Eccentric anomaly
9.57868°
Mean motion
3.89594 °/min
Orbital period
92.4 mins
BSTAR
0.00022908
Loading maneuver chart data...
Computing Atmospheric mass density...
Loading historical data...
Loading historical data...
Loading historical data...
Loading historical data...
Loading historical data...
Loading historical data...
Loading historical data...
Other satellites on launch #35 in the year 2021 (2021-04-29 UTC)

Documentation

Showing up to 5 results
|